Theta_e
311 316 319 319 319 318 320 320 319 319 319 318 319 319 320 319 318 318 318 318 319 319 321 327 341 349 351 352 350 346 346 344 343 344 346 350 351 349 349 347 346 343 344 334
313 315 316 318 319 319 319 320 320 319 318 318 319 320 319 319 319 318 319 319 319 320 323 335 344 350 350 351 350 349 347 344 344 349 350 351 350 349 348 348 341 338 339 341
315 315 314 317 319 319 320 320 321 321 319 317 319 319 319 319 319 318 318 319 320 320 321 324 336 343 349 351 351 349 348 347 345 350 347 345 345 343 344 345 345 341 341 343
315 315 315 315 318 319 321 319 319 319 319 320 319 322 321 321 320 320 319 319 319 320 320 321 323 334 342 348 350 350 349 348 347 342 343 340 347 348 346 346 345 343 340 338
315 315 315 316 317 319 320 319 318 318 319 320 319 320 323 321 321 320 320 319 319 320 320 320 321 328 337 343 345 346 345 344 343 340 343 343 345 344 342 341 340 338 335 335
314 313 315 316 317 318 319 319 319 318 319 319 320 320 322 321 321 320 320 321 324 325 324 322 322 333 338 339 342 343 342 341 339 341 340 342 344 342 341 339 337 335 335 334
311 313 315 316 317 318 318 320 322 320 321 322 321 320 322 324 325 321 324 327 328 328 325 324 329 333 337 339 341 340 336 336 336 337 337 338 337 336 336 336 334 331 329 326
313 313 314 316 317 319 320 321 321 323 323 322 321 321 323 329 329 328 329 328 328 329 329 330 331 332 333 336 337 336 334 335 333 332 332 335 335 332 330 328 327 326 325 324
313 312 313 316 318 318 320 320 320 322 322 322 320 324 329 330 328 328 328 327 325 325 327 330 331 332 334 334 335 334 333 331 334 334 331 329 328 327 327 326 326 325 324 322
316 316 314 318 318 318 319 319 320 322 323 323 320 323 323 331 329 327 327 325 324 325 327 327 329 329 330 330 331 330 330 329 328 327 327 326 325 323 322 321 320 319 316 314
316 319 316 315 319 320 319 320 320 321 322 323 322 323 326 330 329 327 325 324 325 326 326 326 327 327 327 327 326 324 323 323 322 321 319 318 317 316 316 315 313 312 311 311
316 320 319 316 319 318 320 321 321 321 322 322 324 333 329 331 327 325 323 323 323 322 321 321 321 320 320 321 320 320 319 318 318 317 315 314 313 312 312 311 311 311 310 308
316 323 324 321 322 321 321 321 320 320 321 325 325 334 327 326 323 321 319 318 318 317 316 316 317 317 317 317 317 316 316 315 315 315 314 312 312 311 310 309 308 306 305 305
316 322 321 325 324 323 321 321 320 321 323 324 324 331 328 323 320 318 316 316 315 315 315 316 316 315 315 314 314 313 313 313 313 313 313 311 309 307 306 306 305 305 305 307
320 324 320 323 323 324 323 320 320 320 321 324 330 332 327 322 320 318 316 316 316 316 316 315 314 313 313 312 312 311 311 311 310 310 309 307 306 306 306 305 305 305 307 310
320 324 322 325 322 321 321 320 320 319 321 326 329 332 324 320 317 316 316 317 317 316 314 313 312 311 311 310 309 309 308 309 308 307 306 305 306 307 307 306 308 310 310 311
319 325 326 325 323 323 323 321 319 320 324 327 331 327 320 317 317 316 317 316 315 314 312 311 309 308 308 307 307 307 307 306 305 305 305 305 305 307 307 307 309 310 311 312
320 325 327 326 324 330 323 320 320 319 326 328 327 323 320 317 315 315 315 314 312 311 309 308 307 306 305 305 306 305 304 304 304 304 305 305 306 306 306 308 309 310 312 312
324 326 327 328 328 324 322 320 320 324 328 327 325 320 316 314 312 311 312 311 309 307 304 302 303 303 304 303 303 303 303 303 304 304 304 304 304 305 306 307 308 310 310 311
324 325 326 328 327 331 327 324 323 324 328 325 324 320 315 313 316 307 305 304 303 301 299 301 303 301 302 302 302 302 303 303 303 303 303 303 303 304 305 306 308 309 309 310
324 326 327 327 328 325 313 316 320 326 325 321 318 314 314 320 315 304 302 300 299 300 299 301 300 301 302 303 301 301 301 301 301 301 301 302 303 304 305 305 307 307 307 309
317 322 322 326 326 329 307 320 325 320 317 316 314 315 310 306 305 302 300 298 298 298 298 300 301 301 302 302 299 299 300 299 300 301 301 301 302 302 304 305 307 306 306 306
318 313 315 311 310 305 307 314 316 317 315 313 311 309 307 305 302 300 298 297 298 299 299 299 299 298 298 298 298 298 297 298 298 299 299 300 300 302 303 305 305 304 305 304
311 308 309 309 301 302 303 305 310 310 309 306 306 305 304 301 299 298 298 296 296 296 296 296 296 295 295 295 295 296 297 296 296 297 297 300 301 301 303 304 303 302 305 304
303 306 306 303 301 300 298 300 301 301 299 298 297 298 297 297 296 297 297 297 296 296 295 294 294 294 294 294 294 294 295 295 296 297 296 299 301 301 300 300 302 300 305 304
299 305 310 303 299 298 296 297 297 297 297 297 298 297 298 298 298 297 296 296 295 293 292 294 294 293 293 294 294 294 294 295 296 295 295 297 299 300 301 299 298 303 302 303
Wind_Speed
24 19 27 33 30 24 18 21 23 14 14 24 25 21 17 12 13 19 23 20 17 19 19 14 14 18 22 21 21 22 18 17 19 20 17 16 15 13 12 12 13 11 11 15
14 30 32 27 26 25 25 15 18 14 12 19 20 21 21 19 16 16 18 19 18 21 17 13 13 18 23 23 24 24 19 18 16 14 14 12 12 12 10 9 12 15 13 14
23 19 28 24 25 25 26 20 16 20 15 16 12 18 19 18 21 21 20 19 19 20 19 16 13 15 17 20 20 20 18 17 17 15 14 13 12 10 9 8 8 13 14 15
26 21 16 30 29 26 26 22 13 17 18 12 17 10 21 19 18 18 22 20 19 19 16 15 12 14 14 15 15 15 16 16 17 16 10 12 8 7 7 7 6 6 12 12
22 23 24 25 28 27 22 21 15 14 14 7 16 9 16 21 20 19 19 24 19 14 14 13 8 11 12 15 15 16 15 15 14 11 9 9 10 8 5 7 9 9 8 7
24 18 17 21 25 26 21 25 19 14 10 10 15 16 15 15 20 19 20 13 12 11 10 10 10 12 14 14 14 14 14 13 11 11 11 11 10 8 6 6 3 4 4 6
24 26 18 16 22 21 26 25 14 13 11 13 21 13 4 12 3 16 14 14 10 10 11 14 15 15 15 15 16 15 14 12 11 10 9 9 9 8 6 6 5 5 3 2
21 23 25 18 21 19 32 31 19 32 20 16 18 11 12 13 8 8 12 11 11 12 14 15 15 15 15 15 15 16 15 16 15 14 13 13 13 12 10 7 4 1 3 7
18 18 23 19 18 24 32 27 24 17 17 15 11 7 7 16 11 13 15 16 16 16 18 20 20 20 20 19 19 19 20 19 19 20 19 17 14 11 8 5 1 3 6 7
6 11 27 21 24 25 23 28 20 11 23 18 14 17 11 17 14 14 14 18 20 22 24 24 24 24 24 24 24 24 22 22 20 18 16 14 11 8 5 3 2 3 5 8
9 11 18 24 15 26 19 20 18 12 12 10 12 13 9 20 18 18 16 21 25 27 27 27 28 27 26 26 25 24 22 20 18 16 15 13 11 8 5 3 3 5 8 10
6 5 20 30 17 25 22 29 24 14 14 10 11 7 4 19 16 20 24 25 27 28 28 29 28 28 27 25 23 22 20 19 17 15 14 12 9 6 4 3 5 8 11 13
4 6 18 6 7 21 25 25 21 14 10 9 13 8 10 16 17 23 27 28 28 29 29 28 27 26 25 23 21 20 18 17 14 13 11 9 6 5 5 7 9 11 12 13
4 10 15 10 18 23 28 30 23 14 13 16 11 18 17 17 19 21 26 29 29 28 27 27 26 25 23 21 19 18 16 14 12 11 9 7 5 5 7 9 10 11 11 11
3 11 6 9 18 24 28 28 27 16 12 15 20 23 20 20 20 24 29 30 30 28 26 25 24 22 20 18 17 15 13 11 9 8 6 5 6 7 8 9 10 10 9 8
8 7 10 10 16 23 26 25 22 16 2 7 25 21 18 25 29 27 27 29 29 27 25 23 22 20 18 15 13 11 9 8 6 7 7 7 7 7 9 10 9 7 7 8
6 7 9 7 22 13 12 23 23 11 2 17 23 18 25 20 20 24 27 26 26 24 23 21 19 16 13 11 10 9 8 7 7 7 7 7 8 8 8 7 6 5 6 7
6 7 6 12 12 4 10 15 16 7 9 8 24 21 22 23 27 25 23 25 23 21 20 17 15 12 11 9 8 7 7 7 7 7 7 7 7 6 6 4 3 4 5 7
5 5 5 5 5 18 12 20 18 11 4 17 25 23 32 33 34 20 19 21 20 18 16 13 12 10 9 7 7 7 7 7 7 7 7 7 6 5 4 4 4 4 5 7
8 4 6 10 8 4 11 11 9 5 4 11 27 29 30 38 13 8 19 20 19 15 13 12 10 10 8 6 6 7 7 6 6 6 8 6 5 4 3 3 4 5 5 6
5 5 10 8 5 6 11 15 8 10 9 19 29 30 30 9 18 29 23 20 17 15 12 10 9 6 6 5 5 6 5 5 6 7 6 5 4 4 3 3 4 4 5 5
5 5 4 3 5 5 23 9 2 6 27 30 31 28 28 36 35 28 23 19 16 15 12 9 7 6 5 6 8 7 6 6 6 5 5 4 5 4 2 3 4 4 4 5
4 5 2 6 4 5 12 10 14 20 29 28 29 30 35 33 31 25 22 18 15 13 11 9 8 8 7 8 7 7 7 7 6 5 5 4 4 3 2 3 3 3 4 6
5 14 4 3 9 13 16 23 21 23 27 28 28 29 30 34 27 24 21 17 15 13 12 10 10 9 8 8 8 7 6 7 6 5 4 3 2 2 1 1 3 3 4 6
5 9 5 6 8 16 21 20 23 28 29 32 31 33 32 31 28 22 20 17 15 13 12 11 10 9 9 8 8 7 7 7 6 6 5 3 2 3 3 3 1 3 5 8
15 4 2 4 13 18 13 21 23 32 36 37 37 31 27 26 23 20 20 17 15 13 12 12 11 10 8 7 7 8 8 9 8 6 5 4 2 2 3 1 2 6 9 10
Wind_Direction
202 210 210 204 210 224 216 210 224 205 185 212 217 217 215 171 190 218 222 216 217 216 213 203 202 193 196 191 194 203 205 204 211 212 210 209 213 216 218 218 218 225 233 248
173 219 217 216 210 217 230 228 209 187 182 207 208 218 231 226 224 215 215 206 202 203 199 189 176 184 192 192 202 211 204 213 208 196 192 197 206 213 218 221 229 233 246 264
203 225 229 222 218 210 218 220 200 202 190 216 192 217 228 230 228 220 215 209 193 189 189 184 180 181 185 191 190 193 197 198 191 182 193 213 215 226 226 227 230 247 263 272
225 222 210 212 215 202 206 204 192 202 182 195 204 215 206 216 205 212 210 203 198 195 201 203 191 189 182 182 183 183 178 178 184 187 195 209 197 203 197 190 209 246 265 273
217 217 216 205 212 197 215 187 196 174 199 184 189 242 186 205 204 202 203 200 192 185 190 202 204 175 175 165 164 170 171 175 197 209 198 191 187 194 197 248 258 253 276 265
230 207 221 213 204 204 201 183 197 196 204 213 205 219 170 192 207 197 193 174 178 182 178 172 159 144 141 147 148 152 156 162 178 178 187 186 198 196 197 220 243 246 248 283
215 228 204 206 187 193 206 164 176 188 192 218 199 196 358 127 185 170 163 165 158 164 160 150 143 140 136 138 141 143 153 150 153 157 165 169 179 188 184 144 144 115 97 330
200 206 213 187 200 182 197 181 180 180 192 184 182 206 161 107 102 125 116 131 125 125 130 134 136 132 127 126 127 127 132 126 132 141 147 144 133 132 137 143 146 233 300 312
201 211 190 194 187 184 187 201 200 193 191 161 168 132 122 122 122 132 127 115 110 114 116 118 119 121 122 120 117 118 119 120 127 131 131 131 133 136 142 155 205 294 293 303
202 202 186 179 190 191 194 198 207 225 178 172 177 178 155 160 146 134 122 119 118 113 108 108 109 111 112 110 109 109 110 110 113 117 122 128 130 126 119 100 24 338 331 329
264 191 178 190 193 190 196 196 206 216 189 177 166 172 127 151 149 139 130 125 119 112 110 108 108 108 109 110 109 106 105 105 104 107 109 108 102 93 80 53 7 343 329 326
231 182 172 192 175 198 206 201 203 204 185 202 162 110 284 114 134 131 126 120 115 113 113 112 111 110 107 106 105 103 102 101 100 101 101 98 94 87 63 12 338 327 325 323
208 206 158 177 215 202 182 206 192 201 197 186 171 133 102 114 116 124 123 119 117 116 113 110 108 104 103 103 102 99 98 97 96 93 88 85 74 46 9 343 332 328 324 324
233 188 161 205 185 178 188 190 193 184 191 181 184 137 137 129 129 128 125 122 121 118 115 113 109 106 105 103 100 96 93 88 84 80 78 69 40 6 337 329 327 322 324 327
252 164 107 290 149 168 189 189 190 190 206 187 139 148 146 143 140 136 132 129 125 120 117 113 109 107 103 99 94 89 83 78 75 69 51 19 351 337 332 331 328 326 330 333
317 140 141 153 140 177 174 179 190 193 175 163 145 130 133 131 130 132 135 135 127 123 120 115 110 106 101 94 87 82 77 67 49 31 15 356 345 347 340 333 336 337 345 339
318 149 171 131 136 147 180 176 181 149 254 150 149 130 130 131 133 135 136 129 127 125 119 113 105 100 92 84 75 62 46 30 18 14 2 351 344 343 342 344 339 343 349 334
278 156 77 132 131 140 139 193 178 173 97 95 113 135 130 125 122 126 132 130 127 124 115 107 102 95 83 74 62 44 31 20 19 18 6 1 351 336 341 333 333 354 346 356
20 105 107 135 134 110 114 156 175 154 83 122 130 125 123 118 108 90 125 129 124 116 113 110 99 89 78 62 50 42 32 26 28 17 3 346 332 336 338 335 348 346 352 356
43 212 128 145 114 125 95 49 12 122 108 158 147 147 143 146 142 141 131 125 120 115 115 112 107 84 74 56 48 49 41 32 22 3 351 343 340 340 332 325 339 339 350 352
11 65 93 87 97 70 360 330 306 195 142 137 140 142 154 167 124 138 133 120 113 112 105 103 95 86 60 56 62 57 44 18 359 354 339 351 336 341 327 337 337 322 0 1
47 348 27 340 105 100 347 318 279 91 132 137 144 144 121 117 123 129 126 120 117 111 106 101 94 80 72 74 60 47 28 6 357 348 337 339 339 336 312 331 336 329 15 3
55 21 60 26 57 12 2 46 97 126 126 127 128 132 128 126 126 127 122 119 119 115 102 91 87 84 77 67 65 42 21 10 1 356 349 350 338 351 325 339 349 359 6 9
31 7 80 161 31 33 47 57 89 107 112 115 118 122 125 123 123 118 116 112 107 101 97 92 86 80 70 59 47 32 28 10 5 0 351 311 206 104 9 355 8 351 341 355
349 314 76 86 113 78 48 75 94 102 104 107 110 115 116 118 113 114 113 107 103 98 95 96 95 82 69 53 40 25 29 21 15 16 7 342 236 191 82 253 215 357 321 334
343 322 317 61 71 99 70 89 102 102 105 106 108 102 102 105 108 113 107 106 105 102 102 100 95 85 67 55 40 29 26 32 34 37 13 17 2 230 190 157 313 283 306 320